{"data":{"norad_id":65353,"epoch":"2026-09-20T21:50:24.126144Z","epoch_age_seconds":82195,"freshness":"FRESH","line1":"1 65353U 25190C   26263.91000146  .00031623  00000+0  94396-3 0  9997","line2":"2 65353  53.1607 340.0325 0000962  70.5923 289.5183 15.34371771 59667","mean_motion":15.34371771,"eccentricity":9.62e-5,"inclination_deg":53.1607,"raan_deg":340.0325,"arg_perigee_deg":70.5923,"mean_anomaly_deg":289.5183,"bstar":0.00094396,"rev_number":5966,"period_min":93.849484669645,"perigee_km":462.12904712779,"apogee_km":463.4452409331,"semimajor_km":6840.9241440304,"source":"CELESTRAK","updated_at":"2026-09-21T09:00:35.575340Z"}}